Location: Forst
(46.9333°N, 15.4333°E)
Time: 23:25:13
(UTC+00:00)

Oscar 11 - Visible Passes

Search period start: 26 January 2022 00:00
Search period end: 05 February 2022 00:00
Orbit: 611 x 625 km, 97.6° (Epoch: 26 January)

Date Brightness Start Highest point End Pass type
(mag) Time Alt. Az. Time Alt. Az. Time Alt. Az.
26 Jan 8.5 03:48:26 10° NNE 03:52:27 37° E 03:56:27 10° SSE visible
26 Jan 8.1 05:24:55 10° NNW 05:28:23 24° WNW 05:31:52 10° WSW visible
26 Jan 9.9 16:22:31 10° SW 16:25:50 22° W 16:29:11 10° NW visible
27 Jan 7.7 04:05:04 10° NNE 04:09:19 55° E 04:13:33 10° S visible
27 Jan 8.5 05:42:11 10° NNW 05:45:02 17° WNW 05:47:53 10° WSW visible
27 Jan 10.2 16:40:21 10° SW 16:42:49 15° W 16:45:18 10° NW visible
28 Jan 7.0 04:21:49 10° NNE 04:26:09 83° ESE 04:30:28 10° SSW visible
29 Jan 10.1 03:04:14 10° ENE 03:06:23 13° E 03:08:32 10° ESE visible
29 Jan 6.9 04:38:39 10° N 04:42:57 66° WNW 04:47:13 10° SSW visible
30 Jan 9.6 03:20:12 10° NE 03:23:22 20° E 03:26:32 10° SE visible
30 Jan 7.3 04:55:35 10° N 04:59:42 44° WNW 05:03:48 10° SW visible
31 Jan 9.0 03:36:33 10° NE 03:40:19 28° E 03:44:04 10° SSE visible
31 Jan 7.8 05:12:36 10° N 05:16:25 31° WNW 05:20:12 10° SW visible
01 Feb 8.3 03:53:05 10° NNE 03:57:13 42° E 04:01:19 10° S visible
01 Feb 8.2 05:29:45 10° NNW 05:33:04 22° WNW 05:36:23 10° WSW visible
01 Feb 10.0 16:27:31 10° SW 16:30:37 19° W 16:33:44 10° NW visible
02 Feb 7.5 04:09:45 10° NNE 04:14:04 63° ESE 04:18:21 10° S visible
02 Feb 8.6 05:47:06 10° NNW 05:49:42 16° WNW 05:52:17 10° W visible
02 Feb 10.3 16:45:34 10° WSW 16:47:36 13° W 16:49:39 10° WNW visible
03 Feb 10.4 02:53:39 10° E 02:54:09 10° E 02:54:40 10° E visible
03 Feb 6.9 04:26:32 10° NNE 04:30:53 86° W 04:35:12 10° SSW visible
04 Feb 10.0 03:08:35 10° NE 03:11:10 15° E 03:13:44 10° SE visible
04 Feb 7.0 04:43:23 10° N 04:47:39 58° WNW 04:51:54 10° SSW visible
